Terminal Aerodrome Forecast
Issued by NWS Dodge City, KS

Home | Current Version | Previous Version | Graphics & Text | Print | Product List | Glossary Off
Versions: 1 2 3 4 5 6 7 8 9 10 11 12 13 14 15 16 17 18 19 20 21 22 23 24 25 26 27 28 29 30 31 32 33 34 35 36

000
FTUS43 KDDC 260742 AAB
TAFDDC
TAF AMD
KDDC 260742Z 2608/2706 36018KT P6SM BKN009
     FM260900 01015G20KT P6SM BKN006
     FM261500 01012G22KT P6SM BKN007=

USA.gov is the U.S. government's official web portal to all federal, state and local government web resources and services.